Location: Casalecchio di Reno
(44.4760°N, 11.2757°E)
Time: 17:58:23
(UTC+02:00)

DX 1 - Pass Details

Date: 24 June 2024
Orbit: 607 x 619 km, 98.3° (Epoch: 19 July)

Event Time Altitude Azimuth Distance (km) Brightness Sun altitude
Rises 01:32:21 0° 12° (NNE) 2,877 ? -22.0°
Reaches altitude 10° 01:34:32 10° 11° (N) 1,969 ? -22.0°
Maximum altitude 01:38:48 77° 286° (WNW) 628 ? -21.9°
Enters shadow 01:39:22 64° 223° (SW) 676 ? -21.9°
